Regional Weather Roundup
Issued by NWS Binghamton, NY

Home | Current Version | Previous Version | Text Only | Print | Product List | Glossary On
Versions: 1 2 3 4 5 6 7 8 9 10 11 12 13 14 15 16 17 18 19 20 21 22 23 24 25 26 27 28 29 30 31 32 33 34 35 36 37 38 39 40 41 42 43 44 45 46 47 48 49 50
000
ASUS41 KBGM 230710
RWRBGM

REGIONAL WEATHER ROUNDUP
NATIONAL WEATHER SERVICE BINGHAMTON NY
300 AM EDT SUN SEP 23 2018

Note: "fair" indicates few or no clouds below 12,000 feet with no
significant weather and/or obstructions to visibility.

* = Station(s) that does not report precipitation, such as rain,
snow, etc, also no thunder or fog.

NYZ009-015>018-022>025-036-037-044>046-055>057-062-230800
...Central New York...

CITY           SKY/WX    TMP DP  RH WIND       PRES   REMARKS
Binghamton     FAIR      46  44  93 NE5       30.24R
Cortland       FAIR      43  43 100 CALM      30.25S
Dansville      FAIR      46  44  93 SE5       30.26S
Elmira         CLOUDY    50  47  89 W3        30.25S
Seneca Falls   SUNNY     45  45 100 CALM      30.25S
Ithaca         FAIR      46  45  96 E3        30.25S
Hamilton       CLEAR     43  43 100 CALM      30.25S
Hornell        CLOUDY    48  46  93 CALM      30.28S
Monticello     FAIR      47  46  97 CALM      30.25R
Oneonta        FOG       43  43 100 CALM      30.24S VSB 1/2
Penn Yan       FAIR      45  44  97 S5        30.25S FOG
Rome           FAIR      43  43 100 CALM      30.28R
Sidney         CLOUDY    48  48 100 CALM      30.26R
Syracuse       FAIR      45  45 100 CALM      30.25F
$$

PAZ038>040-043-044-047-048-072-230800
...Northeast Pennsylvania...

CITY           SKY/WX    TMP DP  RH WIND       PRES   REMARKS
Scranton       FAIR      52  49  89 E3        30.24R
$$
&&
KEY
WCI = Wind Chill Index
VSB = Visibility
HX  = Heat Index
$$



USA.gov is the U.S. government's official web portal to all federal, state and local government web resources and services.